Torna al catalogo

COSMOS 1375 DEB

AttivoLEO
NORAD 18560·DEBRIS·🇷🇺 Russia

Lanciato Jun 6, 1982 da Plesetsk Cosmodrome

Loading…

Prossimi Passaggi (prossime 24 ore)

TLE

AggiornatoSource: Space-Track

Epoca: Sep 14, 2026, 14:17 UTC

1 18560U 82055BH  26257.59528045  .00000036  00000-0  13022-3 0  9990
2 18560  65.8297 240.5603 0043499 349.8418 113.2853 13.70080419950645

Traccia COSMOS 1375 DEB in tempo reale con AllMySat

Download on the App Store